TimeCDT,TemperatureF,Dew PointF,Humidity,Sea Level PressureIn,VisibilityMPH,Wind Direction,Wind SpeedMPH,Gust SpeedMPH,PrecipitationIn,Events,Conditions,WindDirDegrees,DateUTC
12:55 AM,60.8,51.8,72,30.08,10.0,WSW,9.2,-,N/A,,Clear,240,2011-10-24 05:55:00
1:55 AM,56.8,52.0,84,30.04,10.0,Variable,5.8,-,N/A,,Clear,0,2011-10-24 06:55:00
2:55 AM,52.7,51.4,95,30.05,10.0,WSW,3.5,-,N/A,,Clear,240,2011-10-24 07:55:00
3:55 AM,48.0,47.8,99,30.06,10.0,SSW,5.8,-,N/A,,Clear,210,2011-10-24 08:55:00
4:55 AM,49.5,49.5,100,30.06,10.0,Calm,Calm,-,N/A,,Clear,0,2011-10-24 09:55:00
5:55 AM,44.8,44.6,99,30.10,6.0,SW,3.5,-,N/A,,Clear,220,2011-10-24 10:55:00
6:55 AM,46.9,46.9,100,30.12,10.0,Calm,Calm,-,N/A,,Clear,0,2011-10-24 11:55:00
7:10 AM,46.4,46.4,100,30.13,2.5,Calm,Calm,-,N/A,,Clear,0,2011-10-24 12:10:00
7:55 AM,41.2,41.2,100,30.15,10.0,South,5.8,-,N/A,,Clear,170,2011-10-24 12:55:00
8:55 AM,49.3,49.3,100,30.16,10.0,Calm,Calm,-,N/A,,Clear,0,2011-10-24 13:55:00
9:55 AM,59.0,52.3,79,30.16,10.0,South,3.5,-,N/A,,Clear,180,2011-10-24 14:55:00
10:55 AM,68.2,47.5,47,30.16,10.0,South,10.4,-,N/A,,Mostly Cloudy,190,2011-10-24 15:55:00
11:55 AM,72.9,44.6,36,30.16,10.0,SSW,9.2,-,N/A,,Clear,200,2011-10-24 16:55:00
12:55 PM,76.1,40.3,28,30.13,10.0,SSE,10.4,-,N/A,,Clear,160,2011-10-24 17:55:00
1:55 PM,77.9,40.8,27,30.10,10.0,South,10.4,-,N/A,,Clear,170,2011-10-24 18:55:00
2:55 PM,79.0,39.4,24,30.06,10.0,South,10.4,-,N/A,,Clear,180,2011-10-24 19:55:00
3:55 PM,79.7,41.4,26,30.05,10.0,South,16.1,-,N/A,,Clear,170,2011-10-24 20:55:00
4:55 PM,79.0,41.4,26,30.03,10.0,South,13.8,-,N/A,,Clear,180,2011-10-24 21:55:00
5:55 PM,75.2,41.7,30,30.03,10.0,South,10.4,-,N/A,,Clear,170,2011-10-24 22:55:00
6:55 PM,70.9,43.2,37,30.03,10.0,SSE,9.2,-,N/A,,Clear,160,2011-10-24 23:55:00
7:55 PM,68.2,46.6,46,30.03,10.0,SSE,8.1,-,N/A,,Clear,150,2011-10-25 00:55:00
8:55 PM,65.5,49.8,57,30.02,10.0,South,9.2,-,N/A,,Clear,170,2011-10-25 01:55:00
9:55 PM,63.5,50.4,62,30.03,10.0,South,10.4,-,N/A,,Clear,180,2011-10-25 02:55:00
10:55 PM,58.8,50.0,73,30.03,10.0,South,9.2,-,N/A,,Clear,180,2011-10-25 03:55:00
11:55 PM,62.8,52.5,69,30.01,10.0,South,13.8,-,N/A,,Clear,190,2011-10-25 04:55:00